{"data":{"norad_id":53409,"intl_designator":"2022-097X","name":"STARLINK-4490","alt_names":[],"object_type":"PAYLOAD","status":"ACTIVE","operator":null,"country":"US","launch_date":"2022-08-10","launch_site_code":"AFETR","launch_vehicle":null,"mission":null,"orbit_class":"UNKNOWN","rcs_meters":null,"size_class":null,"mass_kg":null,"dimensions":null,"purposes":["comms"],"wikipedia_slug":null,"has_3d_model":false,"image_url":null,"decayed_at":null,"tle_current":{"epoch":"2026-09-19T15:23:55.375296Z","epoch_age_seconds":149485,"freshness":"FRESH","line1":"1 53409U 22097X   26262.64161314 -.00000216  00000+0  47273-5 0  9992","line2":"2 53409  53.1598 298.0751 0000946 116.1606 243.9494 15.34383909228288","mean_motion":15.34383909,"eccentricity":9.46e-5,"inclination_deg":53.1598,"raan_deg":298.0751,"arg_perigee_deg":116.1606,"mean_anomaly_deg":243.9494,"bstar":4.7273e-6,"rev_number":22828,"period_min":93.848742257633,"perigee_km":462.103918457,"apogee_km":463.39821447917,"semimajor_km":6840.8880664681,"source":"CELESTRAK","updated_at":"2026-09-20T09:00:40.227129Z"}}}